Weather Roundup
Issued by NWS Chicago, IL

Home | Current Version | Previous Version | Graphics & Text | Print | Product List | Glossary On
Versions: 1 2 3 4 5 6 7 8 9 10 11 12 13 14 15 16 17 18 19 20 21 22 23 24 25 26 27 28 29 30 31 32 33 34 35 36 37 38 39 40 41 42 43 44 45 46 47 48 49 50
000
NZUS59 KLOT 210958
HRRLOT

CHICAGO AREA WEATHER ROUNDUP
NATIONAL WEATHER SERVICE CHICAGO/ROMEOVILLE IL
400 AM CST SUN DEC 21 2014

NOTE: "FAIR" INDICATES FEW OR NO CLOUDS BELOW 12,000 FEET WITH NO
SIGNIFICANT WEATHER AND/OR OBSTRUCTIONS TO VISIBILITY.

* THESE STATIONS ARE NOT UNDER NWS QUALITY CONTROL. THEY ALSO MAY NOT
  REPORT WEATHER SUCH AS PRECIPITATION OR FOG.

ILZ005-006-012>014-019>023-211100-
NORTHEAST ILLINOIS

CITY           SKY/WX    TMP DP  RH WIND       PRES   REMARKS
OHARE          CLOUDY    32  27  81 S7        30.21F WCI  26
MIDWAY         CLOUDY    34  27  75 S9        30.23F WCI  27
AURORA         CLOUDY    33  27  78 S6        30.21F HAZE    WCI  28
WAUKEGAN       CLOUDY    32  26  78 S6        30.21F WCI  26
DUPAGE AIRPORT CLOUDY    32  27  81 S8        30.20F WCI  25
WHEELING       CLOUDY    33  26  75 S7        30.23F WCI  27
NORTHERLY IS     N/A     33  26  76 S8          N/A  WCI  26
$$

WIZ051-052-058>065-066-070>072-211100-
SOUTHEAST WISCONSIN

CITY           SKY/WX    TMP DP  RH WIND       PRES   REMARKS
MILWAUKEE      CLOUDY    32  26  78 S6        30.20F WCI  26
KENOSHA*       CLOUDY    32  27  81 S7        30.20F WCI  26
$$

INZ001>003-010>013-019-020-211100-
NORTHWEST INDIANA

CITY           SKY/WX    TMP DP  RH WIND       PRES   REMARKS
GARY*          NOT AVBL
MICHIGAN CITY* NOT AVBL
RENSSELAER*    NOT AVBL
$$

LMZ740>746-211100-
SOUTHERN LAKE MICHIGAN

STATION/POSITION TIME  SKY/WX   TEMP WIND        PRES    VSBY
                                AIR  DIR/SP/G
                 (UTC)          (F)  (DEG/KT/KT) (MB)    (MI)
HARRISON CRIB    0900            33  180/ 12/ 14   N/A
BURNHAM HARBOR   0900            33  180/  6/  9   N/A
CALUMET HARBOR   0900            33  180/  5/ 11 1022.7F
BURNS HARBOR     NOT AVBL
MICHIGAN CITY    NOT AVBL
$$

ABBREVIATIONS USED IN REMARKS
   TC - TEMPERATURE IN CELSIUS
  WCI - WIND CHILL INDEX
   HX - HEAT INDEX
  VSB - VISIBILITY
$$


USA.gov is the U.S. government's official web portal to all federal, state and local government web resources and services.